Location: El Diablo
(32.4667°N, 116.4500°W)
Time: 03:03:54
(UTC+00:00)

NOSS 3-2 (C) - Pass Details

Date: 10 September 2024
Orbit: 699 x 1512 km, 63.4° (Epoch: 06 October)

Event Time Altitude Azimuth Distance (km) Brightness Sun altitude
Exits shadow 12:18:02 11° 205° (SSW) 2,131 4.9 -15.1°
Maximum altitude 12:22:47 82° 118° (ESE) 765 3.0 -14.1°
Drops below altitude 10° 12:28:21 10° 32° (NNE) 2,467 6.3 -13.0°
Sets 12:31:01 0° 31° (NNE) 3,518 7.2 -12.4°
